Flag for Germany Weather past 2 weeks in Alsfeld, Hesse, Germany

Now
68 °F

Passing clouds.


Feels Like: 68 °F
Forecast: 51 / 86 °F
Wind: 5 mph from West

Location: Fritzlar

Current Time: Jul 6, 2015 at 11:24:12 AM

Latest Report: Jul 6, 2015 at 10:00 AM


Visibility: 19 mi

Pressure: 30.17 "Hg

Humidity: 66%

Dew point: 56 °F

Location of AlsfeldLocation

Historic Weather in Alsfeld — Graph

°F

Alsfeld temperature yesterday

Maximum temperature yesterday: 90 °F (at 5:00 PM)
Minimum temperature yesterday: 65 °F (at 10:00 PM)
Average temperature yesterday: 78 °F

Past Weeks' High & Low Weather Summary

 TemperatureHumidityPressure
High97 °F (Jul 4, 4:00 PM)97% (Jun 22, 4:00 AM)30.25 "Hg (Jun 22, 4:00 AM)
Low43 °F (Jun 25, 5:00 AM)30% (Jul 2, 5:00 PM)29.67 "Hg (Jun 23, 1:00 AM)
Average67 °F69%30.08 "Hg
* Reported Jun 21 10:00 AM — Jul 6 10:00 AM, Alsfeld, Weather by CustomWeather, © 2015

Note: Actual official high and low records may vary slightly from our data, if they occured in-between our weather recording intervals... More about our weather records

Advertising

Alsfeld weather history for previous 24 hours

 ConditionsComfort  
Time TempWeatherWind HumidityBarometerVisibility
10:00 AM
Mon, Jul 6
68 °FPassing clouds.5 mph66%30.17 "Hg19 mi
9:00 AM65 °FPassing clouds.6 mph76%30.16 "Hg12 mi
8:00 AM63 °FPassing clouds.2 mph87%30.15 "Hg16 mi
7:00 AM60 °FFog.2 mph91%30.14 "Hg16 mi
6:00 AM58 °FPassing clouds.1 mph93%30.14 "Hg16 mi
5:00 AM60 °FPassing clouds.2 mph95%30.12 "Hg16 mi
4:00 AM62 °FOvercast.1 mph92%30.11 "Hg19 mi
3:00 AM63 °FOvercast.2 mph92%30.11 "Hg19 mi
2:00 AM64 °FThunderstorms. Overcast.6 mph89%30.09 "Hg16 mi
1:00 AM65 °FThundershowers. Overcast.2 mph87%30.06 "Hg16 mi
12:00 AM67 °FThunderstorms. Overcast.7 mph86%30.01 "Hg16 mi
10:00 PM
Sun, Jul 5
65 °FOvercast.2 mph86%29.95 "Hg25 mi
9:00 PM68 °FPartly sunny.5 mph78%29.90 "Hg25 mi
8:00 PM73 °FOvercast.3 mph87%29.89 "Hg19 mi
7:00 PM76 °FThunderstorms. Partly sunny.3 mph85%29.86 "Hg16 mi
6:00 PM75 °FThunderstorms. Overcast.7 mph79%29.87 "Hg16 mi
5:00 PM90 °FThundershowers. Overcast.5 mph46%29.85 "Hg12 mi
4:00 PM90 °FThunderstorms. Passing clouds.5 mph56%29.89 "Hg11 mi
3:00 PM90 °FScattered clouds.3 mph55%29.93 "Hg11 mi
2:00 PM89 °FPartly sunny.6 mph56%29.95 "Hg12 mi
1:00 PM89 °FPartly sunny.3 mph51%29.98 "Hg11 mi
12:00 PM87 °FScattered clouds.2 mph55%29.99 "Hg9 mi
11:00 AM84 °FPartly sunny.2 mph63%30.01 "Hg9 mi
Weather by CustomWeather, © 2015

See weather overviewHow to use our weather pages